Regional Weather Roundup
Issued by NWS

Home | Current Version | Previous Version | Graphics & Text | Print | Product List | Glossary On
Versions: 1 2 3 4 5 6 7 8 9 10 11 12 13 14 15 16 17 18 19 20 21 22 23 24 25 26 27 28 29 30 31 32 33 34 35 36 37 38 39 40 41 42 43 44 45 46 47 48 49 50
000
ASUS45 KTFX 230904
RWRMT
MONTANA HOURLY WEATHER ROUNDUP
NATIONAL WEATHER SERVICE GREAT FALLS MT
304 AM MDT THU OCT 23 2014

NOTE: "FAIR" INDICATES FEW OR NO CLOUDS BELOW 12000 FEET WITH NO
SIGNIFICANT WEATHER AND/OR OBSTRUCTIONS TO VISIBILITY.

* THESE STATIONS ARE NOT UNDER NWS QUALITY CONTROL. THEY DO NOT
   REPORT WEATHER SUCH AS PRECIPITATION OR FOG.

MTZ001>007-043-231000-
WEST OF THE DIVIDE
CITY           SKY/WX    TMP DP  RH WIND       PRES   REMARKS
KALISPELL      LGT RAIN  48  41  77 CALM      29.84R
MISSOULA       CLOUDY    54  37  53 N6        29.90F
BUTTE          CLOUDY    43  28  56 E3        30.01R
MULLAN PASS    LGT RAIN  37  37 100 S9G31     29.88S WCI  30
* ESSEX        N/A       52  37  57 NE1G12     N/A
* LINCOLN      N/A       40  32  73 NW2G7      N/A
* LOOKOUT PASS N/A       43  41  93 S7G16      N/A
* POLSON       N/A       50  35  57 S2G8       N/A
* RONAN APT    CLOUDY    57  36  46 SE7        N/A
* SEELEY LAKE  N/A       38  35  89 NE3        N/A
* THOMP F APT  CLOUDY    40  25  55 E4G9       N/A
$$

MTZ008-052>055-231000-
SOUTHWEST MONTANA
CITY           SKY/WX    TMP DP  RH WIND       PRES   REMARKS
BOZEMAN        CLOUDY    39  30  70 SW3       29.99S
DILLON         CLOUDY    43  30  60 SW10      30.02R
W YELLOWSTONE  CLOUDY    27  25  92 CALM      30.17R
* THREE FORKS  CLOUDY    52  30  43 N/A        N/A
* BOULDER HILL N/A       41  25  53 S14        N/A
* MONIDA PASS  N/A       37  25  62 SE14       N/A   WCI  28
* RAYNOLDS PAS N/A       35  18  50 S15        N/A   WCI  25
* WHITEHALL    N/A       49  29  46 SE3G11     N/A
* WISE RIVER   N/A       34  31  89 W2         N/A
$$

MTZ009>010-012-014-046-048-049-054-231000-
EAST SLOPES AND CENTRAL MONTANA
CITY           SKY/WX    TMP DP  RH WIND       PRES   REMARKS
CUT BANK       CLOUDY    50  34  54 VRB3      29.76R
GREAT FALLS    CLOUDY    52  30  43 S20       29.81S
HELENA         MOCLDY    55  28  35 SW16G24   29.90R
MALMSTROM AFB  CLOUDY    50  32  50 SW21      29.83R
* CONRAD       CLOUDY    52  39  61 SE17G23    N/A
* DEARBORN     N/A       57  30  36 S12G20     N/A
* EAST GLACIER N/A       51  33  50 W9G22      N/A
* MONARCH      N/A       46  18  33 SW14       N/A
* PENDROY      N/A       49  35  59 SW16       N/A
* ROGERS PASS  N/A       46  29  52 SE13G25    N/A
* SAINT MARY   N/A       52  33  48 SW11G26    N/A
* SWEET GRASS  N/A       54  33  45 SW22G27    N/A
$$

MTZ011-013-016-021-035-040-045-047-050-051-231000-
NORTH CENTRAL MONTANA
CITY           SKY/WX    TMP DP  RH WIND       PRES   REMARKS
HAVRE          PTCLDY    52  36  55 SW15      29.75S
LEWISTOWN      CLEAR     54  27  35 SW22      29.87F
* CHESTER      N/A       45  35  68 S3         N/A
* DENTON       N/A       47  31  54 S11        N/A
* JUDITH GAP   N/A       43  26  51 E6         N/A
* LOMA         N/A       56  32  40 SW19G24    N/A
$$

MTZ017>020-022>027-061-062-231000-
NORTHEAST MONTANA
CITY           SKY/WX    TMP DP  RH WIND       PRES   REMARKS
GLASGOW        CLEAR     37  32  82 SE9       29.82S WCI  30
GLENDIVE       CLEAR     30  25  82 S7        29.90S WCI  23
JORDAN         CLEAR     28  23  81 CALM      29.86S
SIDNEY         CLEAR     34  28  79 S6        29.88F WCI  29
WOLF POINT     CLEAR     28  25  89 NE3       29.85F
* BEAVER HILL  N/A       45  27  49 S15        N/A
* CIRCLE       N/A       42  30  63 N/A        N/A
* LINDSAY DVD  N/A       41  27  58 S2         N/A
* NAVAJO       N/A       43  32  65 W14        N/A
$$

MTZ028>042-056>058-231000-
SOUTHCENTRAL AND SOUTHEAST MONTANA
CITY           SKY/WX    TMP DP  RH WIND       PRES   REMARKS
BAKER          CLEAR     45  28  51 W9        29.92S
BILLINGS       PTCLDY    46  23  40 SW8       29.93S
LIVINGSTON     CLOUDY    52  25  35 SW28G46   29.94F
MILES CITY     CLEAR     37  27  67 S10       29.91F WCI  30
* LAUREL APT   MOCLDY    48  19  32 N/A        N/A
* ROUNDUP APT  PTCLDY    41  25  53 N/A        N/A
* ALZADA       N/A       38  27  65 E3         N/A
* HYSHAM       N/A       48  23  37 SW2        N/A
* LAME DEER    N/A       45  23  42 S8         N/A
* REED POINT   N/A       33  28  82 S1         N/A
* ROSCOE HILL  N/A       53  16  23 S13G33     N/A
$$

REGIONAL REPORTS...DAKOTAS
CITY           SKY/WX    TMP DP  RH WIND       PRES   REMARKS
WILLISTON      CLEAR     37  32  82 SW5       29.87S WCI  33
DICKINSON      CLEAR     39  28  65 SW8       29.89S WCI  33
BEACH          N/A       32  28  85 S7        29.91S WCI  25
CROSBY         N/A       37  36  96 S12       29.84S WCI  29
TIOGA          CLEAR     37  37 100 W9        29.89R WCI  30
BISMARCK       CLEAR     36  30  79 CALM      29.92S
GRAND FORKS    CLOUDY    50  46  86 SW6       29.83F
FARGO          PTCLDY    45  43  93 S7        29.89S
BUFFALO SD     CLEAR     39  27  62 W10       29.89S WCI  32
RAPID CITY     CLEAR     37  28  70 W7        30.00F WCI  32
$$

REGIONAL REPORTS...WYOMING/IDAHO/WASHINGTON
CITY           SKY/WX    TMP DP  RH WIND       PRES   REMARKS
GILLETTE       PTCLDY    45  19  35 SW9       30.01S
SHERIDAN       PTCLDY    30  21  69 CALM      29.96F
CODY           MOCLDY    52  21  30 SW13G20   30.03S
YELLOWSTONE LA CLOUDY    27  23  85 NW3       30.21F
SALMON         CLOUDY   N/A N/A N/A N/A        N/A
MULLAN PASS    LGT RAIN  37  37 100 S9G31     29.88S WCI  30
SAND POINT     LGT RAIN  48  48 100 CALM      29.78F
SPOKANE        LGT RAIN  54  45  72 S15       29.77R
$$

REGIONAL REPORTS...ALBERTA
CITY           SKY/WX    TMP DP  RH WIND       PRES   REMARKS
MEDICINE HAT   CLEAR     50  36  59 SW14      29.66F

$$




USA.gov is the U.S. government's official web portal to all federal, state and local government web resources and services.